OneWeb SL0189

operational
NORAD ID: 48217 Int'l Des: 2021-031 Owner: ONEWEBN Country: UK Constellation: oneweb
LEOCIRCULARPOLARONEWEB_TYPE

OneWeb SL0189について

説明を読み込み中...

リアルタイム位置

3D地球を読み込み中...

次回通過

高度履歴

Altitude vs Time

uPlot chart will show altitude changes over time

軌道要素

1 48217U 21031H 26034.27195108 -.00000125 00000-0 -37051-3 0 9996
2 48217 87.9031 316.3931 0001691 90.8635 269.2689 13.14503386230636
Epoch: Feb 3, 2026 • Age: 17 hours

現在のステータス

高度 1212.7 km
速度 7.25 km/s
衛星直下点 49.51°N, 5.2°E
打ち上げ日 Apr 25, 2021
運用期間 4.7 years
タイプ internet

技術仕様

分類 Payload
質量 148.00 kg
乾燥質量 140.00 kg
総質量 148.00 kg
長さ 1.30 m
直径 1.00 m
スパン 5.00 m
形状 Trapezoid+2 pan
製造者 ONEWUS
バスタイプ ARROW
フェーズステータス In Orbit
所有者/国 ONEWEBN/UK

大規模コンステレーション

Loading constellations...